• In Uzbekistan
  • List of Countries
  • For 7 days
  • Water Temperature
  • Satellite Maps
  • Weather Map
  • Weather Widgets
  • user-avatar
    Login

    Hourly Weather Shusha

    Today, 16 January, Wednesday

    Time Temperature Precipitation Wind Pressure Humidity
    00:00 +1°C° 0 mm 3 mps 655 mmHg 47%
    01:00 +1°C° 0 mm 3 mps 655 mmHg 47%
    02:00 +1°C° 0 mm 3 mps 655 mmHg 46%
    03:00 +1°C° 0 mm 3 mps 654 mmHg 45%
    04:00 +1°C° 0 mm 3 mps 654 mmHg 46%
    05:00 +1°C° 0 mm 3 mps 654 mmHg 47%
    06:00 0°C° 0 mm 3 mps 654 mmHg 47%
    07:00 +1°C° 0 mm 3 mps 654 mmHg 45%
    08:00 +2°C° 0 mm 3 mps 654 mmHg 43%
    09:00 +3°C° 0 mm 3 mps 654 mmHg 41%
    10:00 +6°C° 0 mm 2 mps 654 mmHg 37%
    11:00 +7°C° 0 mm 2 mps 654 mmHg 33%
    12:00 +10°C° 0 mm 1 mps 654 mmHg 30%
    13:00 +9°C° 0 mm 2 mps 654 mmHg 30%
    14:00 +9°C° 0 mm 2 mps 654 mmHg 31%
    15:00 +9°C° 0 mm 2 mps 653 mmHg 31%
    16:00 +7°C° 0 mm 2 mps 653 mmHg 37%
    17:00 +6°C° 0 mm 1 mps 652 mmHg 42%
    18:00 +5°C° 0 mm 1 mps 652 mmHg 48%
    19:00 +3°C° 0 mm 2 mps 652 mmHg 47%
    20:00 +3°C° 0 mm 2 mps 651 mmHg 45%
    21:00 +2°C° 0 mm 2 mps 651 mmHg 44%
    22:00 +2°C° 0 mm 2 mps 651 mmHg 43%
    23:00 +2°C° 0 mm 2 mps 650 mmHg 42%

    Tomorrow, 17 January, Thursday

    Time Temperature Precipitation Wind Pressure Humidity
    00:00 +2°C° 0 mm 2 mps 650 mmHg 41%
    01:00 +2°C° 0 mm 2 mps 650 mmHg 42%
    02:00 +2°C° 0 mm 2 mps 650 mmHg 42%
    03:00 +2°C° 0 mm 2 mps 649 mmHg 42%
    04:00 +3°C° 0 mm 1 mps 649 mmHg 43%
    05:00 +3°C° 0 mm 1 mps 649 mmHg 43%
    06:00 +2°C° 0 mm 0 mps 649 mmHg 43%
    07:00 +2°C° 0.1 mm 1 mps 649 mmHg 49%
    08:00 +2°C° 0.1 mm 1 mps 650 mmHg 54%
    09:00 +1°C° 0.1 mm 2 mps 650 mmHg 60%
    10:00 -1°C° 0.6 mm 2 mps 650 mmHg 67%
    11:00 +1°C° 0.6 mm 1 mps 650 mmHg 73%
    12:00 0°C° 0.6 mm 1 mps 650 mmHg 79%
    13:00 0°C° 0.7 mm 1 mps 650 mmHg 81%
    14:00 0°C° 0.7 mm 1 mps 650 mmHg 83%
    15:00 -2°C° 0.7 mm 2 mps 650 mmHg 85%
    16:00 0°C° 0.5 mm 1 mps 651 mmHg 87%
    17:00 -1°C° 0.5 mm 1 mps 652 mmHg 89%
    18:00 -1°C° 0.5 mm 1 mps 652 mmHg 91%
    19:00 -1°C° 0.5 mm 1 mps 653 mmHg 92%
    20:00 -1°C° 0.5 mm 1 mps 653 mmHg 92%
    21:00 -2°C° 0.5 mm 0 mps 654 mmHg 92%
    22:00 -2°C° 0.5 mm 0 mps 654 mmHg 92%
    23:00 -2°C° 0.5 mm 0 mps 655 mmHg 93%

    Day after tomorrow, 18 January, Friday

    Time Temperature Precipitation Wind Pressure Humidity
    00:00 -1°C° 0.5 mm 1 mps 655 mmHg 93%
    01:00 -1°C° 0.5 mm 1 mps 656 mmHg 93%
    02:00 -1°C° 0.5 mm 1 mps 656 mmHg 92%
    03:00 -1°C° 0.5 mm 1 mps 657 mmHg 92%
    04:00 -3°C° 0.4 mm 0 mps 657 mmHg 92%
    05:00 -3°C° 0.4 mm 0 mps 657 mmHg 92%
    06:00 -3°C° 0.4 mm 0 mps 657 mmHg 91%
    07:00 -2°C° 0.4 mm 0 mps 658 mmHg 90%
    08:00 -2°C° 0.4 mm 0 mps 658 mmHg 89%
    09:00 -2°C° 0.4 mm 0 mps 659 mmHg 88%
    10:00 0°C° 0.2 mm 1 mps 659 mmHg 85%
    11:00 0°C° 0.2 mm 1 mps 659 mmHg 83%
    12:00 +1°C° 0.2 mm 1 mps 659 mmHg 81%
    13:00 -1°C° 0.1 mm 2 mps 659 mmHg 80%
    14:00 -1°C° 0.1 mm 2 mps 659 mmHg 80%
    15:00 -1°C° 0.1 mm 2 mps 659 mmHg 80%
    16:00 0°C° 0.1 mm 1 mps 659 mmHg 82%
    17:00 -1°C° 0.1 mm 1 mps 659 mmHg 84%
    18:00 -1°C° 0.1 mm 1 mps 659 mmHg 87%
    19:00 -2°C° 0.1 mm 1 mps 659 mmHg 85%
    20:00 -2°C° 0.1 mm 1 mps 660 mmHg 84%
    21:00 -2°C° 0.1 mm 1 mps 660 mmHg 82%
    22:00 -3°C° 0 mm 1 mps 660 mmHg 79%
    23:00 -3°C° 0 mm 1 mps 660 mmHg 76%

    19 January, Saturday

    Time Temperature Precipitation Wind Pressure Humidity
    00:00 -3°C° 0 mm 1 mps 659 mmHg 73%
    01:00 -5°C° 0 mm 2 mps 659 mmHg 70%
    02:00 -5°C° 0 mm 2 mps 659 mmHg 67%
    03:00 -5°C° 0 mm 2 mps 659 mmHg 64%
    04:00 -5°C° 0 mm 2 mps 659 mmHg 62%
    05:00 -5°C° 0 mm 2 mps 659 mmHg 60%
    06:00 -5°C° 0 mm 2 mps 659 mmHg 58%
    07:00 -2°C° 0 mm 1 mps 659 mmHg 58%
    08:00 -1°C° 0 mm 1 mps 660 mmHg 58%
    09:00 0°C° 0 mm 1 mps 660 mmHg 57%
    10:00 +1°C° 0 mm 1 mps 660 mmHg 57%
    11:00 +2°C° 0 mm 1 mps 660 mmHg 57%
    12:00 +3°C° 0 mm 1 mps 660 mmHg 57%
    13:00 +3°C° 0 mm 1 mps 660 mmHg 57%
    14:00 +3°C° 0 mm 1 mps 660 mmHg 58%
    15:00 +3°C° 0 mm 1 mps 660 mmHg 58%
    16:00 +2°C° 0 mm 1 mps 660 mmHg 60%
    17:00 0°C° 0 mm 1 mps 660 mmHg 62%
    18:00 -1°C° 0 mm 1 mps 660 mmHg 63%
    19:00 -1°C° 0 mm 1 mps 660 mmHg 62%
    20:00 -1°C° 0 mm 1 mps 660 mmHg 60%
    21:00 -3°C° 0 mm 2 mps 660 mmHg 58%
    22:00 -4°C° 0 mm 2 mps 661 mmHg 57%
    23:00 -4°C° 0 mm 2 mps 661 mmHg 55%

    20 January, Sunday

    Time Temperature Precipitation Wind Pressure Humidity
    00:00 -4°C° 0 mm 2 mps 661 mmHg 54%
    01:00 -4°C° 0 mm 2 mps 661 mmHg 53%
    02:00 -4°C° 0 mm 2 mps 661 mmHg 52%
    03:00 -4°C° 0 mm 2 mps 661 mmHg 52%
    04:00 -5°C° 0 mm 2 mps 660 mmHg 51%
    05:00 -5°C° 0 mm 2 mps 660 mmHg 51%
    06:00 -3°C° 0 mm 1 mps 660 mmHg 51%
    07:00 -2°C° 0 mm 1 mps 661 mmHg 51%
    08:00 -1°C° 0 mm 1 mps 661 mmHg 52%
    09:00 0°C° 0 mm 1 mps 662 mmHg 52%
    10:00 0°C° 0 mm 1 mps 662 mmHg 53%
    11:00 +1°C° 0 mm 1 mps 662 mmHg 53%
    12:00 +2°C° 0 mm 1 mps 662 mmHg 54%
    13:00 +2°C° 0 mm 1 mps 661 mmHg 57%
    14:00 +2°C° 0 mm 1 mps 661 mmHg 59%
    15:00 +2°C° 0 mm 1 mps 661 mmHg 62%
    16:00 0°C° 0 mm 1 mps 661 mmHg 67%
    17:00 -1°C° 0 mm 1 mps 660 mmHg 72%
    18:00 -3°C° 0 mm 0 mps 660 mmHg 76%
    19:00 -3°C° 0 mm 0 mps 660 mmHg 75%
    20:00 -2°C° 0 mm 1 mps 661 mmHg 74%
    21:00 -3°C° 0 mm 1 mps 661 mmHg 72%
    22:00 -3°C° 0 mm 1 mps 661 mmHg 70%
    23:00 -3°C° 0 mm 1 mps 661 mmHg 69%

    21 January, Monday

    Time Temperature Precipitation Wind Pressure Humidity
    00:00 -3°C° 0 mm 1 mps 660 mmHg 67%
    01:00 -3°C° 0 mm 1 mps 660 mmHg 66%
    02:00 -3°C° 0 mm 1 mps 660 mmHg 65%
    03:00 -4°C° 0 mm 1 mps 660 mmHg 65%
    04:00 -4°C° 0 mm 1 mps 660 mmHg 64%
    05:00 -4°C° 0 mm 1 mps 660 mmHg 64%
    06:00 -4°C° 0 mm 1 mps 660 mmHg 63%
    07:00 -3°C° 0 mm 1 mps 660 mmHg 61%
    08:00 -2°C° 0 mm 1 mps 660 mmHg 60%
    09:00 -1°C° 0 mm 1 mps 661 mmHg 59%
    10:00 0°C° 0 mm 1 mps 660 mmHg 57%
    11:00 +1°C° 0 mm 1 mps 660 mmHg 56%
    12:00 +2°C° 0 mm 1 mps 660 mmHg 55%
    13:00 +2°C° 0 mm 1 mps 659 mmHg 57%
    14:00 +2°C° 0 mm 1 mps 659 mmHg 58%
    15:00 +2°C° 0 mm 1 mps 659 mmHg 59%
    16:00 +1°C° 0 mm 1 mps 658 mmHg 63%
    17:00 -1°C° 0 mm 1 mps 658 mmHg 67%
    18:00 -2°C° 0 mm 1 mps 658 mmHg 72%
    19:00 -2°C° 0 mm 1 mps 658 mmHg 68%
    20:00 -2°C° 0 mm 1 mps 658 mmHg 65%
    21:00 -4°C° 0 mm 2 mps 658 mmHg 62%
    22:00 -4°C° 0 mm 2 mps 658 mmHg 58%
    23:00 -4°C° 0 mm 2 mps 658 mmHg 54%
    Show more